User: anonymous   Login
Location: Carella
(45.8167°N, 9.2667°E)
Time: 02:06:09
(UTC+00:00)
Language:

STARLINK-1116 - Orbit

View from above orbital plane
View from above orbital plane
View from above satellite
View from above satellite

Ground track
Ground track

The orbit data is extracted from the following two-line orbital elements,

1 44947U 20001AK  20192.58334491 +.00035819 +00000-0 +24673-2 0  9992
2 44947 052.9987 250.7081 0001064 100.4159 212.1700 15.05545658001811
Epoch (UTC): 10 July 2020 14:00:01
Eccentricity: 0.0001064
inclination: 52.9987°
perigee height: 549 km
apogee height: 550 km
right ascension of ascending node: 250.7081°
argument of perigee: 100.4159°
revolutions per day: 15.05545658
mean anomaly at epoch: 212.1700°
orbit number at epoch: 181

The dashed part of the orbit path shows where the satellite is in the earth's shadow,  

DLR